FW8570 Weather Reports


time (UTC)temp
F
wind
direction
speed
knots
gust
knots
rain 1hr
in
rain 24hr
in
rain mn
in
humidity
%
barometer
mb
20260905204652 100 102 0.9 1.7 0.00 0.00 0.00 48 1010.3
20260905204148 100 135 0.0 0.9 0.00 0.00 0.00 45 1010.3
20260905203642 103 115 2.6 3.5 0.00 0.00 0.00 43 1010.3
20260905203138 103 84 0.9 1.7 0.00 0.00 0.00 42 1010.5
20260905202633 101 147 0.9 0.9 0.00 0.00 0.00 44 1010.4
20260905202128 100 114 3.5 3.5 0.00 0.00 0.00 47 1010.4
20260905201624 100 118 2.6 5.2 0.00 0.00 0.00 47 1010.4
20260905201123 99 197 4.3 6.1 0.00 0.00 0.00 48 1010.5
20260905200619 100 135 1.7 2.6 0.00 0.00 0.00 48 1010.7
20260905200114 99 130 0.9 0.9 0.00 0.00 0.00 48 1010.7
20260905195607 100 131 3.5 3.5 0.00 0.00 0.00 49 1010.8
20260905195103 100 123 0.9 0.9 0.00 0.00 0.00 50 1010.8
20260905194602 99 162 1.7 2.6 0.00 0.00 0.00 52 1011.0
20260905194101 98 123 0.0 0.0 0.00 0.00 0.00 52 1010.9
20260905193557 99 5 3.5 3.5 0.00 0.00 0.00 49 1011.3
20260905193052 100 5 5.2 6.1 0.00 0.00 0.00 48 1011.2
20260905192548 99 69 0.9 1.7 0.00 0.00 0.00 49 1011.3
20260905192044 99 18 1.7 1.7 0.00 0.00 0.00 49 1011.3
20260905191542 99 258 2.6 2.6 0.00 0.00 0.00 50 1011.4
20260905191041 98 175 1.7 1.7 0.00 0.00 0.00 52 1011.5
20260905190539 97 135 4.3 5.2 0.00 0.00 0.00 52 1011.8
20260905190033 96 115 3.5 5.2 0.00 0.00 0.00 54 1011.9
20260905185533 97 138 6.1 7.0 0.00 0.00 0.00 52 1011.9
20260905185033 97 69 2.6 3.5 0.00 0.00 0.00 52 1012.0
20260905184532 98 134 2.6 3.5 0.00 0.00 0.00 52 1012.1
20260905184026 99 136 3.5 5.2 0.00 0.00 0.00 51 1012.1
20260905183525 98 240 4.3 5.2 0.00 0.00 0.00 52 1012.1
20260905183020 97 149 3.5 5.2 0.00 0.00 0.00 54 1012.3
20260905182515 97 155 2.6 2.6 0.00 0.00 0.00 53 1012.2
20260905182009 96 91 1.7 1.7 0.00 0.00 0.00 53 1012.2
20260905181504 96 105 0.0 0.9 0.00 0.00 0.00 54 1012.3
20260905181003 96 48 1.7 3.5 0.00 0.00 0.00 54 1012.4
20260905180458 96 154 2.6 2.6 0.00 0.00 0.00 55 1012.5
20260905175954 96 14 0.9 2.6 0.00 0.00 0.00 55 1012.7
20260905175453 96 97 3.5 3.5 0.00 0.00 0.00 57 1012.5
20260905174948 95 166 2.6 2.6 0.00 0.00 0.00 55 1012.7
20260905174443 95 150 3.5 3.5 0.00 0.00 0.00 57 1012.8
20260905173939 96 40 2.6 2.6 0.00 0.00 0.00 55 1012.9
20260905173435 95 32 2.6 3.5 0.00 0.00 0.00 56 1012.8
20260905172930 96 37 4.3 6.1 0.00 0.00 0.00 55 1012.8
20260905172428 96 349 7.0 8.7 0.00 0.00 0.00 55 1013.1
20260905171924 96 125 1.7 2.6 0.00 0.00 0.00 56 1013.0
20260905171421 95 105 0.9 0.9 0.00 0.00 0.00 56 1012.9
20260905170916 96 124 0.0 0.0 0.00 0.00 0.00 56 1013.2
20260905170412 96 125 0.0 0.9 0.00 0.00 0.00 56 1013.1
20260905165912 95 62 0.9 0.9 0.00 0.00 0.00 57 1013.3
20260905165407 95 188 0.0 0.9 0.00 0.00 0.00 57 1013.3
20260905164902 94 128 1.7 1.7 0.00 0.00 0.00 58 1013.3
20260905164356 94 120 3.5 3.5 0.00 0.00 0.00 59 1013.5
20260905163852 94 25 1.7 2.6 0.00 0.00 0.00 58 1013.5
20260905163348 95 132 3.5 5.2 0.00 0.00 0.00 58 1013.7
20260905162844 94 127 0.0 0.9 0.00 0.00 0.00 60 1013.5
20260905162343 94 102 1.7 1.7 0.00 0.00 0.00 59 1013.8
20260905161838 93 111 1.7 1.7 0.00 0.00 0.00 60 1013.7
20260905161338 94 259 2.6 2.6 0.00 0.00 0.00 58 1013.9
20260905160836 93 47 1.7 2.6 0.00 0.00 0.00 60 1013.9
20260905160330 92 102 1.7 1.7 0.00 0.00 0.00 61 1013.8
20260905155825 93 48 3.5 3.5 0.00 0.00 0.00 61 1013.9
20260905155324 93 357 2.6 3.5 0.00 0.00 0.00 61 1013.9
20260905154819 93 181 3.5 3.5 0.00 0.00 0.00 58 1013.9
20260905154314 93 103 2.6 5.2 0.00 0.00 0.00 60 1013.9
20260905153809 92 120 0.9 0.9 0.00 0.00 0.00 62 1013.9
20260905153307 92 121 1.7 2.6 0.00 0.00 0.00 62 1013.9
20260905152806 91 42 4.3 5.2 0.00 0.00 0.00 62 1014.1
20260905152306 93 6 3.5 5.2 0.00 0.00 0.00 60 1013.8
20260905151800 94 35 0.9 1.7 0.00 0.00 0.00 56 1013.7
20260905151256 94 47 1.7 2.6 0.00 0.00 0.00 56 1013.9
20260905150755 93 349 3.5 3.5 0.00 0.00 0.00 57 1013.9
20260905150250 93 255 1.7 1.7 0.00 0.00 0.00 58 1014.0
20260905145747 93 24 0.0 0.0 0.00 0.00 0.00 59 1013.8
20260905145242 92 36 0.9 1.7 0.00 0.00 0.00 60 1013.8
20260905144741 92 7 3.5 5.2 0.00 0.00 0.00 58 1013.9
20260905144236 92 13 2.6 3.5 0.00 0.00 0.00 60 1013.8
20260905143736 92 70 0.0 0.9 0.00 0.00 0.00 64 1013.9
20260905143235 91 98 0.0 0.9 0.00 0.00 0.00 67 1014.0
20260905142733 91 90 0.0 0.9 0.00 0.00 0.00 65 1013.9
20260905142228 90 83 0.0 0.9 0.00 0.00 0.00 67 1013.9
20260905141725 89 86 0.9 0.9 0.00 0.00 0.00 67 1014.1
20260905141220 88 117 0.0 0.0 0.00 0.00 0.00 68 1014.0
20260905140715 88 100 0.0 0.9 0.00 0.00 0.00 72 1013.9
20260905140214 88 101 0.9 0.9 0.00 0.00 0.00 74 1013.8
20260905135709 87 153 0.0 0.0 0.00 0.00 0.00 73 1013.9
20260905135205 86 174 2.6 2.6 0.00 0.00 0.00 77 1013.8
20260905134704 84 160 0.9 0.9 0.00 0.00 0.00 82 1014.1
20260905134204 83 153 0.9 0.9 0.00 0.00 0.00 85 1014.0
20260905133659 82 170 0.9 1.7 0.00 0.00 0.00 86 1014.1
20260905133154 82 160 0.9 0.9 0.00 0.00 0.00 86 1014.2
20260905132653 82 240 1.7 1.7 0.00 0.00 0.00 88 1014.1
20260905132148 81 158 0.9 0.9 0.00 0.00 0.00 91 1014.3
20260905131644 80 135 0.9 0.9 0.00 0.00 0.00 93 1014.3
20260905131143 79 143 0.9 0.9 0.00 0.00 0.00 95 1014.4
20260905130638 78 110 0.9 0.9 0.00 0.00 0.00 97 1014.3
20260905130138 77 103 0.9 0.9 0.00 0.00 0.00 99 1014.2
20260905125633 76 143 0.9 0.9 0.00 0.00 0.00 99 1014.3
20260905125128 76 149 0.9 0.9 0.00 0.00 0.00 99 1014.3
20260905124625 75 140 0.9 0.9 0.00 0.00 0.00 99 1014.3
20260905124120 75 178 0.9 0.9 0.00 0.00 0.00 99 1014.4
20260905123609 74 140 0.9 0.9 0.00 0.00 0.00 99 1014.5
20260905123106 74 141 0.0 0.0 0.00 0.00 0.00 99 1014.6
20260905122601 74 133 0.0 0.0 0.00 0.00 0.00 99 1014.4
20260905122100 74 141 0.0 0.0 0.00 0.00 0.00 99 1014.3
20260905121555 74 128 0.0 0.0 0.00 0.00 0.00 99 1014.4
20260905121050 74 103 0.0 0.0 0.00 0.00 0.00 99 1014.4
20260905120549 73 129 0.0 0.0 0.00 0.00 0.00 99 1014.1
20260905120045 73 149 0.9 0.9 0.00 0.00 0.00 99 1014.2
20260905115543 73 154 0.9 0.9 0.00 0.00 0.00 99 1013.9
20260905115038 73 137 0.0 0.9 0.00 0.00 0.00 99 1014.0
20260905114538 73 140 0.0 0.0 0.00 0.00 0.00 99 1013.9
20260905114037 73 134 0.0 0.0 0.00 0.00 0.00 99 1013.7
20260905113532 73 132 0.0 0.0 0.00 0.00 0.00 99 1013.6
20260905113027 73 157 0.9 1.7 0.00 0.00 0.00 99 1013.5
20260905112523 73 138 0.0 0.0 0.00 0.00 0.00 99 1013.6
20260905112019 73 134 0.0 0.0 0.00 0.00 0.00 99 1013.5
20260905111519 73 134 0.0 0.0 0.00 0.00 0.00 99 1013.6
20260905111018 73 148 0.9 0.9 0.00 0.00 0.00 99 1013.3
20260905110517 73 140 0.0 0.0 0.00 0.00 0.00 99 1013.3
20260905110013 73 145 0.0 0.0 0.00 0.00 0.00 99 1013.0
20260905105507 74 127 0.0 0.0 0.00 0.00 0.00 99 1013.2
20260905105006 74 127 0.0 0.0 0.00 0.00 0.00 99 1013.0
20260905104502 74 120 0.0 0.0 0.00 0.00 0.00 99 1013.1
20260905103956 74 120 0.0 0.0 0.00 0.00 0.00 99 1013.0
20260905103451 74 120 0.0 0.0 0.00 0.00 0.00 99 1013.0
20260905102948 74 121 0.0 0.0 0.00 0.00 0.00 99 1012.9
20260905102444 74 121 0.0 0.0 0.00 0.00 0.00 99 1013.0
20260905101939 74 121 0.0 0.0 0.00 0.00 0.00 99 1013.0
20260905101437 74 128 0.0 0.0 0.00 0.00 0.00 99 1013.1
20260905100926 74 122 0.0 0.0 0.00 0.00 0.00 99 1013.0
20260905100417 74 118 0.0 0.0 0.00 0.00 0.00 99 1013.0
20260905095915 74 92 0.0 0.9 0.00 0.00 0.00 99 1012.8
20260905095410 74 99 0.9 0.9 0.00 0.00 0.00 99 1012.9
20260905094904 74 126 0.0 0.0 0.00 0.00 0.00 99 1012.8
20260905094400 74 128 0.0 0.0 0.00 0.00 0.00 99 1012.7
20260905093859 74 129 0.0 0.0 0.00 0.00 0.00 99 1013.0
20260905093354 74 129 0.0 0.0 0.00 0.00 0.00 99 1012.8
20260905092850 74 129 0.0 0.0 0.00 0.00 0.00 99 1012.8
20260905092350 74 143 0.0 0.9 0.00 0.00 0.00 99 1012.6
20260905091845 74 136 0.0 0.9 0.00 0.00 0.00 99 1012.7
20260905091339 75 137 0.0 0.9 0.00 0.00 0.00 99 1012.7
20260905090839 75 156 0.9 0.9 0.00 0.00 0.00 99 1012.8
20260905090335 75 128 0.0 0.0 0.00 0.00 0.00 99 1012.6
20260905085834 75 129 0.0 0.0 0.00 0.00 0.00 99 1012.6
20260905085333 75 129 0.9 0.9 0.00 0.00 0.00 99 1012.6
20260905084824 75 128 0.0 0.0 0.00 0.00 0.00 99 1012.6
20260905084323 74 163 0.9 0.9 0.00 0.00 0.00 99 1012.7
20260905083818 75 143 0.0 0.0 0.00 0.00 0.00 99 1012.7
20260905083314 75 117 0.0 0.0 0.00 0.00 0.00 99 1012.6
20260905082809 75 103 0.0 0.0 0.00 0.00 0.00 99 1012.6
20260905082307 75 114 0.0 0.0 0.00 0.00 0.00 99 1012.6
20260905081805 75 129 0.0 0.0 0.00 0.00 0.00 99 1012.7
20260905081301 75 129 0.0 0.0 0.00 0.00 0.00 99 1012.7
20260905080759 75 129 0.0 0.0 0.00 0.00 0.00 99 1012.7
20260905080254 75 129 0.0 0.0 0.00 0.00 0.00 99 1012.7
20260905075753 75 129 0.0 0.0 0.00 0.00 0.00 99 1012.6
20260905075252 75 129 0.0 0.0 0.00 0.00 0.00 99 1012.8
20260905074751 75 129 0.0 0.0 0.00 0.00 0.00 99 1012.8
20260905074248 75 129 0.0 0.0 0.00 0.00 0.00 99 1012.7
20260905073743 75 152 0.9 0.9 0.00 0.00 0.00 99 1012.9
20260905073238 75 162 0.9 0.9 0.00 0.00 0.00 99 1012.8
20260905072737 75 139 0.0 0.0 0.00 0.00 0.00 99 1012.9
20260905072233 75 141 0.0 0.0 0.00 0.00 0.00 99 1012.6
20260905071729 75 129 0.0 0.0 0.00 0.00 0.00 99 1013.0
20260905071225 75 129 0.0 0.0 0.00 0.00 0.00 99 1013.1
20260905070720 75 112 0.0 0.0 0.00 0.00 0.00 99 1012.8
20260905070216 76 112 0.0 0.0 0.00 0.00 0.00 99 1013.1
20260905065714 76 138 0.0 0.0 0.00 0.00 0.00 99 1013.0
20260905065209 76 142 0.0 0.0 0.00 0.00 0.00 99 1012.8
20260905064704 76 145 0.0 0.9 0.00 0.00 0.00 99 1013.0
20260905064200 76 129 0.0 0.0 0.00 0.00 0.00 99 1013.0
20260905063658 76 129 0.9 0.9 0.00 0.00 0.00 99 1013.0
20260905063155 76 129 0.0 0.0 0.00 0.00 0.00 99 1013.3
20260905062650 76 129 0.0 0.0 0.00 0.00 0.00 99 1013.3
20260905062149 76 130 0.0 0.0 0.00 0.00 0.00 99 1013.4
20260905061644 76 109 0.0 0.0 0.00 0.00 0.00 99 1013.4
20260905061143 76 139 0.0 0.0 0.00 0.00 0.00 99 1013.4
20260905060639 76 144 0.9 0.9 0.00 0.00 0.00 99 1013.3
20260905060136 76 137 0.0 0.0 0.00 0.00 0.00 99 1013.3
20260905055634 76 133 0.0 0.0 0.00 0.00 0.00 99 1013.2
20260905055129 76 133 0.0 0.0 0.00 0.00 0.00 99 1013.2
20260905054625 77 133 0.0 0.0 0.00 0.00 0.00 99 1013.3
20260905054120 77 133 0.0 0.0 0.00 0.00 0.00 99 1013.4
20260905053615 77 133 0.0 0.0 0.00 0.00 0.00 99 1013.3
20260905053110 77 133 0.0 0.0 0.00 0.00 0.00 99 1013.3
20260905052609 77 134 0.0 0.0 0.00 0.00 0.00 99 1013.3
20260905052104 77 173 0.0 0.0 0.00 0.00 0.00 99 1013.4
20260905051559 77 133 0.0 0.0 0.00 0.00 0.00 98 1013.2
20260905051055 77 165 0.0 0.0 0.00 0.00 0.00 98 1013.4
20260905050546 77 128 0.0 0.0 0.00 0.00 0.00 98 1013.3
20260905050042 77 127 0.0 0.0 0.00 0.00 0.00 98 1013.5
20260905045537 77 127 0.0 0.0 0.00 0.00 0.00 98 1013.4
20260905045032 77 127 0.0 0.0 0.00 0.00 0.00 98 1013.5
20260905044532 77 127 0.0 0.0 0.00 0.00 0.00 98 1013.5
20260905044032 77 144 0.0 0.0 0.00 0.00 0.00 98 1013.7
20260905043532 78 128 0.0 0.0 0.00 0.00 0.00 98 1013.4
20260905043027 78 94 0.0 0.9 0.00 0.00 0.00 97 1013.4
20260905042526 78 110 0.0 0.0 0.00 0.00 0.00 97 1013.4
20260905042021 78 112 0.0 0.0 0.00 0.00 0.00 97 1013.4
20260905041517 78 113 0.0 0.0 0.00 0.00 0.00 97 1013.5
20260905041012 78 113 0.0 0.0 0.00 0.00 0.00 97 1013.5
20260905040511 78 111 0.0 0.0 0.00 0.00 0.00 97 1013.3
20260905040010 78 87 0.9 0.9 0.00 0.00 0.00 97 1013.3
20260905035511 78 116 0.0 0.0 0.00 0.00 0.00 97 1013.5
20260905035009 78 128 0.0 0.0 0.00 0.00 0.00 97 1013.3
20260905034504 78 128 0.0 0.0 0.00 0.00 0.00 97 1013.6
20260905034003 78 128 0.0 0.0 0.00 0.00 0.00 97 1013.7
20260905033503 78 134 0.9 0.9 0.00 0.00 0.00 97 1013.5
20260905032958 78 123 0.0 0.0 0.00 0.00 0.00 96 1013.6
20260905032453 79 167 0.9 0.9 0.00 0.00 0.00 96 1013.5
20260905031948 79 134 0.0 0.0 0.00 0.00 0.00 96 1013.6
20260905031444 79 134 0.0 0.0 0.00 0.00 0.00 96 1013.7
20260905030939 79 134 0.0 0.0 0.00 0.00 0.00 95 1013.6
20260905030434 79 137 0.0 0.9 0.00 0.00 0.00 95 1013.6
20260905025933 79 147 0.9 0.9 0.00 0.00 0.00 95 1013.6
20260905025428 79 147 0.0 0.9 0.00 0.00 0.00 94 1013.5
20260905024925 79 130 0.0 0.0 0.00 0.00 0.00 94 1013.5
20260905024425 79 130 0.0 0.0 0.00 0.00 0.00 94 1013.5
20260905023921 79 135 0.0 0.0 0.00 0.00 0.00 94 1013.7
20260905023416 79 123 0.0 0.0 0.00 0.00 0.00 93 1013.4
20260905022915 80 123 0.0 0.0 0.00 0.00 0.00 93 1013.6
20260905022410 80 128 0.0 0.0 0.00 0.00 0.00 93 1013.7
20260905021905 80 144 0.9 0.9 0.00 0.00 0.00 93 1013.6
20260905021400 80 115 0.0 0.0 0.00 0.00 0.00 92 1013.5
20260905020855 80 115 0.0 0.0 0.00 0.00 0.00 91 1013.4
20260905020349 80 115 0.0 0.0 0.00 0.00 0.00 91 1013.3
20260905015850 80 115 0.0 0.0 0.00 0.00 0.00 91 1013.2
20260905015348 81 115 0.0 0.0 0.00 0.00 0.00 90 1013.4
20260905014848 81 115 0.0 0.0 0.00 0.00 0.00 91 1013.3
20260905014343 81 115 0.0 0.0 0.00 0.00 0.00 90 1013.2
20260905013838 81 114 0.0 0.0 0.00 0.00 0.00 90 1013.3
20260905013335 81 114 0.0 0.0 0.00 0.00 0.00 89 1013.3
20260905012835 82 114 0.0 0.0 0.00 0.00 0.00 89 1013.0
20260905012330 82 114 0.0 0.0 0.00 0.00 0.00 88 1013.1
20260905011827 82 114 0.0 0.0 0.00 0.00 0.00 88 1013.0
20260905011322 82 134 0.0 0.0 0.00 0.00 0.00 88 1013.1
20260905010817 82 135 0.0 0.0 0.00 0.00 0.00 88 1012.9
20260905010318 83 131 0.0 0.0 0.00 0.00 0.00 86 1012.9
20260905005814 83 131 0.0 0.0 0.00 0.00 0.00 86 1012.7
20260905005310 83 132 0.0 0.0 0.00 0.00 0.00 86 1012.8
20260905004810 84 131 0.0 0.0 0.00 0.00 0.00 85 1012.6
20260905004259 84 133 0.0 0.0 0.00 0.00 0.00 85 1012.9
20260905003754 84 129 0.0 0.0 0.00 0.00 0.00 84 1012.7
20260905003250 84 126 0.0 0.0 0.00 0.00 0.00 83 1012.7
20260905002745 85 128 0.0 0.0 0.00 0.00 0.00 82 1012.8
20260905002245 85 125 0.0 0.9 0.00 0.00 0.00 83 1012.6
20260905001741 86 125 0.0 0.0 0.00 0.00 0.00 82 1012.8
20260905001240 86 123 0.0 0.9 0.00 0.00 0.00 81 1012.7
20260905000735 86 122 0.0 0.0 0.00 0.00 0.00 81 1012.7
20260905000230 87 122 0.0 0.0 0.00 0.00 0.00 79 1012.9
20260904235726 87 122 0.0 0.0 0.00 0.00 0.00 78 1012.9
20260904235220 87 123 0.0 0.9 0.00 0.00 0.00 77 1012.9
20260904234715 88 125 0.0 0.0 0.00 0.00 0.00 75 1012.6
20260904234211 88 125 0.0 0.0 0.00 0.00 0.00 74 1012.8
20260904233706 88 125 0.0 0.0 0.00 0.00 0.00 75 1012.8
20260904233201 89 126 0.0 0.0 0.00 0.00 0.00 75 1012.6
20260904232658 89 119 0.0 0.9 0.00 0.00 0.00 74 1012.9
20260904232154 90 128 0.0 0.0 0.00 0.00 0.00 70 1012.6
20260904231649 90 132 0.0 0.0 0.00 0.00 0.00 70 1012.6
20260904231145 91 130 0.0 0.9 0.00 0.00 0.00 69 1012.8
20260904230644 92 131 0.9 1.7 0.00 0.00 0.00 67 1012.5
20260904230139 94 129 0.9 0.9 0.00 0.00 0.00 65 1012.6
20260904225637 96 133 1.7 1.7 0.00 0.00 0.00 60 1012.6
20260904225133 96 83 0.0 0.9 0.00 0.00 0.00 55 1012.6
20260904224627 97 137 0.9 0.9 0.00 0.00 0.00 57 1012.5
20260904224121 97 118 0.0 0.0 0.00 0.00 0.00 58 1012.7
20260904223621 97 138 0.9 1.7 0.00 0.00 0.00 55 1012.5
20260904223116 98 99 0.0 0.9 0.00 0.00 0.00 53 1012.4
20260904222613 99 121 1.7 2.6 0.00 0.00 0.00 52 1012.4
20260904222108 99 123 0.0 0.9 0.00 0.00 0.00 51 1012.7
20260904221602 100 131 0.9 1.7 0.00 0.00 0.00 51 1012.4
20260904221101 100 97 0.9 0.9 0.00 0.00 0.00 50 1012.5
20260904220556 99 103 0.0 0.9 0.00 0.00 0.00 50 1012.6
20260904220052 98 123 0.0 0.0 0.00 0.00 0.00 51 1012.6
20260904215551 98 7 1.7 2.6 0.00 0.00 0.00 52 1012.6
20260904215048 97 129 0.9 0.9 0.00 0.00 0.00 53 1012.8
20260904214543 98 16 4.3 5.2 0.00 0.00 0.00 51 1012.7
20260904214038 99 40 1.7 1.7 0.00 0.00 0.00 50 1012.7
20260904213536 99 98 1.7 2.6 0.00 0.00 0.00 51 1012.6
20260904213033 99 9 4.3 6.1 0.00 0.00 0.00 49 1012.5
20260904212532 100 42 6.1 8.7 0.00 0.00 0.00 47 1012.7
20260904212027 103 343 6.1 7.8 0.00 0.00 0.00 42 1012.7
20260904211521 105 12 1.7 1.7 0.00 0.00 0.00 41 1012.8
20260904211017 104 122 0.0 0.0 0.00 0.00 0.00 39 1012.8
20260904210516 104 203 1.7 2.6 0.00 0.00 0.00 39 1012.9
20260904210012 105 176 2.6 2.6 0.00 0.00 0.00 39 1012.7
20260904205507 102 114 0.0 0.0 0.00 0.00 0.00 41 1013.1